Total_Precipitation_Accumulation
1.51 1.51 1.51 1.52 1.63 1.79 1.96 2.24 2.45 2.34 2.04 1.79 1.77 1.71 1.65 1.70 1.89 1.62 1.50 1.50 1.35 1.26 1.25 1.23 1.26 1.29 1.31 1.28 1.30 1.37 1.49 1.67 1.91 2.10 2.27 2.47 2.63 2.76
1.39 1.37 1.35 1.35 1.41 1.47 1.58 1.78 2.06 2.25 2.08 1.72 1.66 1.61 1.58 1.52 1.73 1.54 1.53 1.53 1.29 1.12 1.05 1.04 1.06 1.12 1.13 1.11 1.12 1.15 1.21 1.31 1.50 1.72 1.93 2.14 2.30 2.47
1.24 1.27 1.29 1.34 1.40 1.35 1.40 1.52 1.69 1.92 2.04 1.82 1.67 1.59 1.57 1.63 1.62 1.49 1.40 1.31 1.21 1.15 0.99 0.93 0.94 1.01 1.02 1.01 1.04 1.06 1.08 1.18 1.34 1.51 1.71 1.92 2.08 2.18
1.16 1.24 1.25 1.28 1.35 1.35 1.40 1.46 1.59 1.79 1.94 1.98 1.79 1.64 1.59 1.59 1.60 1.53 1.27 1.14 1.13 1.19 1.04 0.92 0.86 0.85 0.93 0.92 0.93 0.98 1.05 1.15 1.25 1.37 1.54 1.71 1.85 1.93
1.10 1.17 1.22 1.27 1.28 1.30 1.35 1.40 1.53 1.66 1.84 1.94 1.83 1.70 1.61 1.55 1.65 1.54 1.39 1.45 1.20 1.13 1.05 0.98 0.90 0.89 1.09 1.12 0.91 0.89 0.94 1.05 1.13 1.21 1.34 1.45 1.55 1.63
0.94 1.05 1.12 1.17 1.18 1.26 1.31 1.38 1.47 1.65 1.81 1.87 1.77 1.64 1.59 1.59 1.69 1.70 1.62 1.53 1.39 1.10 1.09 1.03 1.00 1.02 1.33 1.83 1.33 1.03 0.97 1.02 1.09 1.16 1.19 1.20 1.22 1.25
0.82 0.91 0.97 1.00 1.01 1.07 1.10 1.23 1.41 1.60 1.70 1.79 1.75 1.68 1.61 1.72 1.74 1.66 1.60 1.58 1.44 1.28 1.26 1.14 1.25 1.54 2.05 2.65 2.16 1.53 1.29 1.17 1.10 1.13 1.15 1.13 1.08 1.05
0.90 0.90 0.86 0.86 0.83 0.80 0.88 0.99 1.18 1.42 1.64 1.75 1.71 1.70 1.66 1.71 1.81 1.77 1.73 1.75 1.69 1.42 1.36 1.31 1.50 2.25 2.87 3.14 2.67 1.85 1.53 1.31 1.17 1.20 1.23 1.20 1.07 0.97
0.96 0.93 0.79 0.74 0.85 0.87 0.89 0.91 1.03 1.16 1.40 1.67 1.75 1.67 1.68 1.73 1.88 1.94 1.86 1.83 1.77 1.54 1.58 1.57 1.75 2.54 2.77 2.88 2.68 1.91 1.60 1.44 1.37 1.42 1.40 1.22 1.04 0.94
0.78 0.84 0.92 0.93 0.87 0.90 0.91 1.02 1.10 1.21 1.28 1.41 1.63 1.59 1.55 1.67 1.81 1.84 1.79 1.74 1.67 1.54 1.58 1.73 1.91 2.41 2.38 2.48 2.50 1.97 1.65 1.53 1.47 1.47 1.42 1.20 1.01 0.90
0.61 0.65 0.72 0.78 0.78 0.85 0.96 1.14 1.20 1.33 1.30 1.45 1.49 1.43 1.44 1.48 1.46 1.52 1.78 1.92 1.83 1.57 1.47 1.62 1.81 2.11 2.16 2.22 2.11 1.91 1.72 1.60 1.48 1.42 1.32 1.10 0.98 0.93
0.65 0.71 0.68 0.62 0.67 0.79 0.99 1.23 1.39 1.46 1.53 1.66 1.62 1.59 1.49 1.46 1.38 1.43 1.74 1.96 1.95 1.71 1.43 1.49 1.62 1.81 2.06 2.03 1.85 1.71 1.74 1.75 1.63 1.55 1.37 1.08 0.87 0.84
0.69 0.77 0.77 0.64 0.59 0.67 0.88 1.11 1.29 1.34 1.57 1.83 1.69 1.53 1.48 1.45 1.42 1.42 1.58 1.71 1.70 1.58 1.32 1.43 1.62 1.72 1.85 1.90 1.83 1.79 1.69 1.68 1.68 1.73 1.60 1.28 0.95 0.76
0.75 0.75 0.73 0.68 0.65 0.72 0.87 1.04 1.18 1.38 1.59 1.71 1.50 1.33 1.24 1.22 1.28 1.25 1.24 1.27 1.34 1.32 1.25 1.39 1.65 1.81 1.81 1.70 1.78 1.78 1.76 1.75 1.73 1.76 1.75 1.57 1.26 1.04
0.65 0.71 0.67 0.63 0.73 0.95 1.06 1.16 1.33 1.56 1.62 1.49 1.35 1.22 1.11 1.14 1.12 1.11 1.10 1.16 1.15 1.03 0.96 1.10 1.39 1.59 1.71 1.69 1.71 1.70 1.80 1.97 1.95 1.91 1.85 1.67 1.44 1.23
0.61 0.74 0.79 0.79 0.96 1.16 1.31 1.40 1.52 1.62 1.47 1.33 1.26 1.14 1.02 1.10 1.15 1.10 1.20 1.23 1.22 1.13 1.02 1.03 1.18 1.39 1.52 1.53 1.67 1.77 1.80 2.16 2.23 2.04 1.98 1.91 1.64 1.40
0.59 0.77 0.92 0.96 1.08 1.23 1.36 1.44 1.50 1.51 1.44 1.30 1.23 1.15 1.07 1.07 1.04 0.98 1.07 1.14 1.19 1.20 1.17 1.14 1.17 1.25 1.33 1.41 1.60 1.72 1.84 2.09 2.21 2.01 1.90 1.98 1.84 1.55
0.65 0.93 1.02 1.00 1.05 1.14 1.26 1.37 1.38 1.35 1.32 1.33 1.31 1.27 1.19 1.08 1.03 0.98 0.99 1.07 1.15 1.13 1.12 1.10 1.10 1.13 1.22 1.33 1.50 1.62 1.66 1.86 1.92 1.79 1.60 1.67 1.82 1.61
0.70 0.92 1.03 1.06 1.09 1.13 1.16 1.21 1.27 1.29 1.24 1.26 1.28 1.22 1.11 1.03 1.00 0.99 0.99 1.04 1.07 1.01 0.94 0.88 0.90 0.98 1.11 1.38 1.53 1.57 1.57 1.59 1.60 1.59 1.49 1.39 1.50 1.49
0.70 0.89 1.00 1.05 1.10 1.14 1.15 1.12 1.16 1.20 1.16 1.11 1.15 1.13 1.05 1.00 1.00 1.01 1.01 0.97 0.97 0.91 0.88 0.81 0.79 0.87 1.01 1.23 1.58 1.72 1.50 1.32 1.29 1.39 1.40 1.35 1.44 1.46
0.66 0.77 0.88 0.96 0.98 1.00 1.05 1.07 1.10 1.14 1.09 1.05 1.09 1.11 1.08 1.02 0.95 0.87 0.83 0.76 0.83 0.86 0.84 0.84 0.81 0.76 0.74 0.87 1.16 1.44 1.49 1.35 1.20 1.20 1.21 1.28 1.32 1.21
0.60 0.70 0.78 0.81 0.82 0.79 0.81 0.85 0.89 0.92 0.93 0.98 1.03 1.00 0.93 0.89 0.81 0.73 0.72 0.75 0.80 0.84 0.81 0.77 0.72 0.72 0.76 0.88 1.03 1.21 1.31 1.21 1.10 1.08 1.06 1.01 1.00 1.04
0.64 0.68 0.72 0.72 0.71 0.69 0.67 0.68 0.72 0.77 0.80 0.83 0.89 0.87 0.80 0.75 0.70 0.64 0.61 0.61 0.63 0.65 0.69 0.72 0.74 0.73 0.75 0.78 0.80 0.90 1.00 1.01 0.95 0.91 1.00 0.99 0.91 0.98